CAPE
0 0 0 0 0 0 0 0 0 0 0 0 0 0 0 0 0 0 0 0 0 0 0 0 0 0 0 0 0 0 0 0 0 0 0 0 0 2 0 0 0 0 0 0
0 0 0 0 0 0 0 0 0 0 0 0 0 0 0 0 0 0 0 0 0 0 0 0 0 0 0 0 0 0 0 0 0 0 0 0 0 0 16 0 0 0 0 0
0 0 0 0 0 0 0 0 0 0 0 0 0 0 0 0 0 0 0 0 0 0 0 0 0 0 0 0 0 0 0 0 1 0 0 0 0 0 0 1 0 0 0 0
0 0 0 0 0 0 0 0 0 0 0 0 0 0 0 0 0 0 0 0 0 0 0 0 0 0 0 0 0 0 0 0 0 0 0 0 0 0 0 1 0 0 0 0
0 0 0 0 0 0 0 0 0 0 0 0 0 0 0 0 0 0 0 0 0 0 0 0 0 0 0 0 0 0 0 0 0 0 0 1 0 1 0 0 6 4 0 0
0 0 0 0 0 0 0 0 0 0 0 0 0 0 0 0 0 0 0 0 0 0 0 0 0 0 0 0 0 0 0 0 0 0 0 0 1 1 13 2 0 3 0 5
0 0 0 0 0 0 0 0 0 0 0 0 0 0 0 0 0 0 0 0 0 0 0 0 0 0 0 0 0 0 0 0 0 0 0 0 1 3 5 7 0 0 0 0
0 0 0 0 0 0 0 0 0 0 0 0 0 0 0 0 0 0 0 0 0 0 0 0 0 0 0 2 8 0 0 0 0 0 0 0 0 2 3 2 0 0 0 0
0 0 0 0 0 0 0 0 0 0 0 0 0 0 0 0 0 0 0 0 0 0 0 0 0 0 0 1 5 10 0 0 0 0 0 0 0 1 0 0 0 0 0 0
0 0 0 0 0 0 0 0 0 0 0 0 0 0 0 0 0 0 0 0 0 0 0 0 0 0 0 0 0 0 0 0 0 0 0 0 2 0 0 0 0 0 0 2
0 0 0 0 0 0 0 0 0 0 0 0 0 0 0 0 0 0 0 0 0 0 0 0 0 0 0 0 0 6 0 0 0 0 0 0 1 0 1 0 0 0 0 0
0 0 0 0 0 0 0 0 0 0 0 0 0 0 0 0 0 0 0 0 0 0 0 0 0 0 0 0 0 0 0 1 2 0 0 0 0 0 0 0 0 0 0 0
0 0 0 0 0 0 0 0 0 0 0 0 0 0 0 0 0 0 0 0 0 0 0 0 0 0 0 0 0 0 0 0 3 0 0 0 0 0 0 0 0 0 0 0
0 0 0 0 0 0 0 0 0 0 0 0 0 0 0 0 0 0 0 0 0 0 0 0 0 0 0 0 0 0 0 0 0 0 0 0 0 0 0 0 0 0 0 0
0 0 0 0 0 0 0 0 0 0 0 0 0 0 0 0 0 0 0 0 0 0 0 0 0 1 2 0 0 0 4 2 1 0 0 2 0 0 0 0 0 0 0 0
0 0 0 0 0 0 0 0 0 0 0 0 0 0 0 0 0 0 0 0 0 0 0 0 0 0 3 2 0 3 4 0 3 6 0 0 0 0 0 0 0 0 0 0
0 0 0 0 0 0 0 0 0 0 0 0 0 0 0 0 0 0 0 0 0 0 0 0 0 0 0 0 0 3 1 1 1 1 1 0 0 0 0 0 0 0 0 0
0 0 0 0 0 0 0 0 0 0 0 0 0 0 0 0 0 1 0 0 0 0 0 0 0 0 0 0 0 3 2 2 2 1 1 0 0 0 0 0 0 0 0 0
0 0 0 0 0 0 0 0 0 0 0 0 0 0 0 0 0 1 0 0 0 0 0 0 0 0 1 2 3 3 3 2 2 0 1 0 0 0 0 0 0 0 0 0
0 0 0 0 0 0 0 0 0 0 0 0 0 0 0 0 0 0 4 0 0 0 0 0 0 0 0 2 2 4 1 2 0 0 0 0 0 0 0 0 0 0 0 0
0 0 0 0 0 0 0 0 0 0 0 0 0 0 0 0 0 0 0 0 0 0 0 0 0 0 0 0 4 3 1 0 7 1 0 0 0 0 0 0 0 0 0 0
0 0 0 0 0 0 0 0 0 0 0 0 0 0 0 0 0 0 0 0 0 0 3 0 0 0 0 1 2 4 1 0 0 0 0 0 0 0 0 0 0 0 0 0
0 0 0 0 0 0 0 0 0 0 1 0 0 1 0 0 0 0 0 0 0 0 0 0 0 0 0 0 0 0 2 0 0 0 0 0 0 0 0 0 0 0 0 0
0 0 0 0 0 0 0 0 0 0 0 0 0 0 2 0 0 0 0 0 0 0 0 0 0 0 0 0 0 0 2 4 0 0 0 0 0 0 0 0 0 0 0 0
0 0 0 0 0 0 0 0 0 0 0 0 0 0 0 0 0 0 0 0 0 0 0 0 0 0 0 0 0 0 1 2 1 0 0 0 0 0 0 0 0 0 0 0
0 0 0 0 0 0 0 0 0 0 0 0 0 0 0 0 0 0 0 0 0 0 0 0 0 0 0 0 0 0 0 0 0 0 0 0 0 0 0 0 0 0 0 0
0 0 0 0 0 0 0 1 0 0 0 0 0 0 0 3 0 0 3 1 0 5 2 0 0 0 0 0 0 0 0 0 0 0 0 0 0 0 0 0 0 0 0 0
CIN
0 0 0 0 0 0 0 0 0 0 0 0 0 0 0 0 0 0 0 0 0 0 0 0 0 0 0 0 0 0 0 0 0 0 0 0 -90 -2 0 0 0 0 0 0
0 0 0 0 0 0 0 0 0 0 0 0 0 0 0 0 0 0 0 0 0 0 0 0 0 0 0 0 0 0 0 0 0 0 0 0 0 0 -16 0 0 0 0 0
0 0 0 0 0 0 0 0 0 0 0 0 0 0 0 0 0 0 0 0 0 0 0 0 0 0 0 0 0 0 0 0 -1 0 0 0 0 0 0 -5 0 0 0 0
0 0 0 0 0 0 0 0 0 0 0 0 0 0 0 0 0 0 0 0 0 0 0 0 0 0 0 0 0 0 0 0 0 0 0 0 0 0 0 0 0 0 0 0
0 0 0 0 0 0 0 0 0 0 0 0 0 0 0 0 0 0 0 0 0 0 0 0 0 0 0 0 0 0 0 0 0 0 0 -2 0 0 0 0 -11 -7 0 0
0 0 0 0 0 0 0 0 0 0 0 0 0 0 0 0 0 0 0 0 0 0 0 0 0 0 0 0 0 -2 0 0 0 0 0 0 -4 0 0 -1 0 -6 -1 -14
0 0 0 0 0 0 0 0 0 0 0 0 0 0 0 0 0 0 0 0 0 0 0 0 0 0 0 0 -1 0 0 0 0 0 0 0 0 0 -30 -12 0 -4 -3 -6
0 0 0 0 0 0 0 0 0 0 0 0 0 0 0 0 0 0 0 0 0 0 0 0 0 0 0 -7 -19 -1 0 0 0 0 0 0 0 0 0 -36 0 0 0 0
0 0 0 0 0 0 0 0 0 0 0 0 0 0 0 0 0 0 0 0 0 0 0 0 0 0 0 -3 -8 -24 0 0 0 0 0 0 0 0 0 -1 0 0 0 0
0 0 0 0 0 0 0 0 0 0 0 0 0 0 0 0 0 0 0 0 0 0 0 0 0 0 0 0 0 0 0 0 0 0 0 0 0 0 0 0 0 -1 0 -16
0 0 0 0 0 0 0 0 0 0 0 0 0 0 0 0 0 0 0 0 0 0 0 0 0 0 0 0 0 -2 0 0 0 0 0 0 0 0 0 0 0 -1 0 0
0 0 0 0 0 0 0 0 0 0 0 0 0 0 0 0 0 0 0 0 0 0 0 0 0 0 0 0 0 0 0 -1 0 0 0 0 0 0 0 0 0 0 0 0
0 0 0 0 0 0 0 0 0 0 0 0 0 0 0 0 0 0 0 0 0 0 0 0 0 0 0 0 0 0 0 0 -1 0 0 0 0 0 0 0 0 0 0 0
0 0 0 0 0 0 0 0 0 0 0 0 0 0 0 0 0 0 0 0 0 0 0 0 0 0 0 0 0 0 0 0 0 0 0 0 0 0 0 0 0 0 0 0
0 0 0 0 0 0 0 0 0 0 0 0 0 0 0 0 0 0 0 0 0 0 0 0 0 -2 -1 0 0 0 -4 -1 -1 0 0 0 0 0 0 0 0 0 0 0
0 0 0 0 0 0 0 0 0 0 0 0 0 0 0 0 0 0 0 0 0 0 0 0 0 0 0 -3 0 -6 -14 -1 -1 0 -1 0 0 0 0 0 0 0 0 0
0 0 0 0 0 0 0 0 0 0 0 0 0 0 0 0 0 0 0 0 0 0 0 0 0 0 0 0 0 0 0 0 -1 -1 0 0 0 0 0 0 0 0 0 0
0 0 0 0 0 0 0 0 0 0 0 0 0 0 0 0 0 -3 0 0 0 0 0 0 0 -1 0 0 0 0 0 0 0 0 0 0 0 0 0 0 0 0 0 0
0 0 0 0 0 0 0 0 0 0 0 0 0 0 0 0 0 -4 0 0 0 0 0 0 -1 0 -2 0 0 0 0 0 0 0 0 0 0 0 0 0 0 0 0 0
0 0 0 0 0 0 0 0 0 0 0 0 0 0 0 0 0 0 -7 0 0 0 0 0 0 0 -1 -1 0 0 0 0 0 0 0 0 0 0 0 0 0 0 0 0
0 0 0 0 0 0 0 0 0 0 0 0 0 0 0 0 0 0 0 0 0 0 0 0 0 0 0 0 0 0 0 0 -14 -2 0 0 0 0 0 0 0 0 0 0
0 0 0 0 0 0 0 0 0 0 0 0 -1 0 0 0 0 0 0 0 0 0 -13 0 0 0 0 -1 0 0 0 0 -6 0 0 0 0 0 0 0 0 0 0 0
0 0 0 0 0 0 0 0 0 0 -2 0 0 -4 0 0 0 0 0 0 0 0 -1 0 0 0 0 0 0 0 0 0 0 0 0 0 0 0 0 0 0 0 0 0
0 0 0 0 0 0 0 0 0 0 0 0 0 0 -1 -1 0 0 0 0 0 0 -3 0 0 0 0 0 0 0 0 0 0 0 0 0 0 0 0 0 0 0 0 0
0 -1 0 0 0 0 -1 0 0 0 0 0 0 0 0 0 0 0 0 0 0 0 0 0 0 0 0 0 0 0 0 0 -2 0 0 0 0 0 0 0 0 0 0 0
0 0 0 0 0 -2 0 -1 0 0 0 0 0 -1 0 0 0 0 0 0 -1 0 0 0 0 0 0 0 0 0 0 0 -2 0 0 0 0 0 0 0 0 0 0 0
0 0 0 0 0 0 -1 -5 0 0 0 0 0 0 0 -2 -3 0 -7 -7 -7 -17 -16 0 0 0 0 0 0 0 0 0 0 0 0 0 0 0 0 0 0 0 0 0
Wind_Speed
16 17 18 19 19 18 16 15 16 16 18 19 20 20 19 20 23 22 21 23 24 24 25 24 26 26 26 28 31 31 27 24 29 31 23 23 18 18 20 18 16 16 16 12
15 17 18 18 18 17 14 15 17 18 19 18 19 20 21 22 22 24 22 23 24 25 24 23 24 27 25 32 35 29 28 26 31 26 18 25 22 21 17 16 16 17 17 14
15 16 17 17 17 16 13 13 15 19 21 20 20 20 21 19 22 23 22 22 23 26 24 25 22 27 30 32 28 24 24 23 25 21 16 15 23 23 19 19 15 14 15 12
14 16 17 17 16 16 13 14 15 15 16 19 20 21 20 21 20 20 25 19 28 27 25 27 25 29 32 26 28 29 28 25 23 17 6 20 21 20 22 19 17 16 13 12
13 15 16 17 16 14 13 12 12 14 17 18 19 21 21 21 21 23 23 24 26 25 26 26 26 28 26 23 26 29 27 24 21 7 13 14 14 10 15 18 16 17 16 11
12 14 16 17 17 13 12 12 13 14 15 16 19 21 19 20 19 20 23 24 25 24 25 22 14 12 14 15 21 28 26 24 11 16 12 14 14 10 10 7 6 11 9 16
12 13 15 16 17 13 10 12 12 14 16 17 18 19 20 21 21 20 22 26 26 22 21 16 15 9 11 13 20 23 24 6 13 16 10 12 11 12 12 10 18 17 15 13
11 12 14 15 16 14 12 13 13 14 16 17 18 19 19 18 19 21 22 24 22 21 22 23 25 24 21 21 20 22 11 12 14 15 15 13 13 15 13 7 16 17 14 13
10 12 13 15 15 14 13 15 14 14 15 20 17 18 20 20 22 19 22 25 22 22 22 25 27 29 28 25 22 17 17 14 16 15 13 10 12 15 15 16 11 17 13 5
10 11 13 14 15 15 13 14 16 15 16 19 19 19 19 20 20 21 22 23 26 29 27 27 28 26 26 26 24 18 18 17 16 15 14 13 14 17 13 7 12 15 13 12
9 11 13 14 15 15 13 14 17 15 15 19 20 20 21 19 21 23 21 21 26 28 29 28 26 26 25 23 19 21 19 18 16 15 14 13 18 11 7 13 13 15 11 9
8 10 12 14 16 15 13 14 17 16 17 17 20 21 22 22 22 21 26 23 24 26 26 26 24 25 23 23 16 20 19 18 18 16 18 19 18 16 13 14 16 14 11 11
8 10 12 14 16 16 13 13 14 18 19 19 19 22 22 23 23 23 21 23 22 23 21 23 22 24 22 20 20 22 22 20 21 19 17 20 19 16 14 16 15 16 14 17
8 9 11 13 15 16 15 13 17 16 16 17 18 17 21 21 21 24 25 23 21 21 23 23 24 23 19 19 24 25 24 24 21 21 18 18 17 17 18 19 17 16 15 17
7 9 11 12 12 14 16 17 17 19 17 16 16 18 18 19 21 22 22 23 25 24 24 23 24 19 21 22 19 17 14 16 19 21 20 19 22 20 20 19 18 17 16 16
6 9 11 13 14 12 13 15 19 19 18 16 16 16 16 18 18 19 22 24 25 24 24 24 21 19 20 15 15 14 16 18 19 22 23 23 22 21 20 18 18 17 17 21
6 8 10 13 15 14 14 14 15 19 18 17 16 17 15 15 17 17 20 22 23 23 23 24 22 21 17 14 15 18 21 24 24 24 22 21 19 17 18 17 16 16 17 6
7 8 9 11 13 14 16 17 17 18 16 17 17 16 16 14 16 18 19 21 21 21 22 21 21 13 13 14 17 20 21 22 21 19 20 23 22 19 17 17 14 11 10 4
7 9 11 12 14 15 15 16 17 17 16 16 16 15 17 15 16 17 18 19 20 20 21 20 20 9 11 15 18 17 19 19 21 21 21 21 20 18 17 12 11 11 11 6
9 12 12 13 14 13 16 15 16 17 18 16 15 16 16 18 19 18 18 17 18 19 19 18 7 12 13 17 19 19 19 18 19 20 18 16 14 14 14 14 14 14 12 7
11 11 11 10 12 14 15 15 16 16 16 14 14 16 16 19 18 17 18 18 17 18 18 20 15 14 19 18 19 19 18 15 13 16 20 19 19 15 15 14 13 9 10 8
9 6 7 11 14 14 14 15 15 14 14 12 12 14 15 16 17 16 16 18 18 17 16 17 17 16 21 16 18 18 16 14 9 9 10 12 12 13 13 12 11 11 12 11
9 11 12 13 15 13 14 15 14 12 12 11 11 14 14 15 16 16 16 17 16 15 16 14 17 17 20 18 17 18 16 14 10 9 10 9 10 10 11 12 12 12 10 10
11 12 13 14 13 13 14 13 9 10 10 10 13 14 14 14 15 15 15 16 17 16 16 17 20 18 20 19 16 17 17 15 13 12 11 11 10 9 11 9 9 9 10 11
12 12 13 13 11 11 9 9 10 10 11 13 13 13 13 14 14 14 15 15 15 17 18 20 20 19 20 20 19 17 17 15 16 15 13 12 12 11 10 10 9 9 10 11
13 14 14 12 9 9 9 9 10 12 11 12 14 15 13 12 12 12 13 14 16 16 18 19 20 19 19 21 20 19 17 18 16 15 15 15 14 13 12 11 11 11 11 11
15 14 14 15 7 7 10 10 10 12 14 13 14 14 12 13 12 12 14 15 15 15 19 20 20 20 21 22 20 22 18 19 19 18 15 16 15 15 14 13 14 14 13 13
Wind_Direction
296 301 304 308 317 308 27 339 353 288 326 9 22 22 35 43 15 26 32 20 23 20 17 15 12 10 10 10 3 0 3 356 351 349 12 10 12 349 354 350 261 254 256 208
303 305 307 311 322 336 342 10 353 321 25 20 32 38 32 24 21 17 25 27 23 18 18 16 13 9 18 5 358 2 4 2 355 0 1 359 291 277 353 279 248 271 277 249
308 312 311 312 310 317 353 354 353 354 15 44 45 41 29 34 26 29 35 33 26 17 16 12 13 6 0 1 12 16 13 7 0 354 352 265 259 265 270 261 210 215 225 227
311 315 315 315 305 298 345 349 352 3 9 11 25 28 33 30 37 46 24 39 16 15 14 10 9 3 1 12 14 9 9 1 358 3 222 243 243 241 265 223 214 202 204 125
315 321 324 320 314 307 352 4 13 14 39 36 21 17 20 33 34 26 27 22 16 18 12 9 2 3 10 13 11 10 14 10 15 96 204 224 244 279 293 275 279 209 275 101
320 330 333 333 330 329 2 355 25 23 18 18 19 12 26 34 35 39 29 22 16 15 13 7 3 8 12 13 11 10 13 13 44 171 247 229 199 277 308 285 253 255 227 109
329 337 342 343 346 348 18 354 2 17 13 16 19 32 33 32 29 29 25 19 17 17 9 10 17 13 25 22 19 20 18 261 207 194 230 201 229 328 316 324 1 343 331 325
334 340 345 351 352 356 14 348 0 19 26 33 26 29 35 42 36 29 28 23 22 21 21 19 16 21 22 20 22 24 30 238 208 200 192 220 258 290 279 264 354 342 327 28
340 341 345 350 350 349 10 354 350 26 32 350 8 27 16 16 13 26 25 20 24 23 22 16 10 8 9 12 15 29 273 257 219 224 223 242 285 295 280 219 327 329 309 333
343 344 345 347 349 352 15 355 344 22 29 357 359 13 14 18 17 17 18 22 20 20 17 14 10 9 11 8 11 19 256 239 223 226 251 250 301 296 274 327 267 295 295 208
345 346 347 351 352 354 11 3 351 20 29 8 9 12 16 24 20 15 18 23 19 17 14 13 12 10 12 11 15 293 247 233 230 220 238 248 303 284 301 264 261 282 271 252
345 348 350 355 357 352 2 7 350 16 24 31 32 21 20 24 23 27 24 28 22 22 18 16 14 9 12 9 19 291 238 237 230 240 241 274 266 248 243 273 285 277 261 230
343 350 357 358 360 0 5 16 1 36 38 29 18 21 30 28 29 27 29 28 28 27 29 21 17 10 13 9 314 270 267 266 230 241 223 281 248 242 246 281 283 276 240 211
338 347 353 357 1 3 11 11 343 15 21 15 20 38 25 34 32 28 33 37 34 32 24 17 12 8 17 1 280 260 256 259 241 235 259 281 230 248 270 277 277 273 241 217
338 340 339 342 345 355 24 15 0 357 11 15 33 37 38 37 34 35 37 32 26 24 18 15 12 18 15 315 266 263 267 261 243 235 258 249 238 255 266 268 265 253 227 218
332 337 334 326 321 337 354 356 351 343 6 23 17 31 39 37 36 38 36 30 26 26 24 21 21 30 22 290 256 258 279 270 262 252 258 253 244 252 258 259 262 234 220 203
319 338 342 352 9 5 349 355 358 324 2 16 22 21 40 44 39 41 34 31 29 32 32 31 45 52 327 262 258 272 269 271 266 261 253 238 235 246 270 261 251 231 219 204
299 316 336 350 6 17 354 347 347 347 19 14 13 18 30 39 37 33 35 31 35 39 37 45 50 71 259 257 277 274 269 269 257 248 245 232 240 251 254 255 243 236 218 190
294 304 318 333 334 339 344 338 334 8 13 9 12 17 14 39 36 36 38 39 36 43 41 51 49 270 286 272 287 284 283 266 248 244 232 231 231 236 247 256 255 234 223 214
288 299 316 318 331 345 334 340 354 360 359 7 14 19 23 20 26 34 37 41 40 38 45 53 119 265 280 298 299 295 288 270 250 233 229 240 251 253 245 244 248 235 232 225
287 305 313 320 333 336 334 344 349 353 357 9 15 20 26 17 25 32 33 36 40 38 46 42 291 289 304 300 310 310 305 290 268 241 227 231 229 253 239 246 245 249 243 238
296 325 328 328 329 325 333 339 348 352 357 18 22 25 21 26 29 37 39 35 34 39 49 10 302 292 309 296 313 318 317 311 295 302 286 274 263 257 256 260 258 251 245 246
286 302 312 316 312 317 323 329 338 350 360 12 24 18 26 23 28 34 35 37 38 39 40 350 287 291 317 302 305 316 316 319 316 313 317 316 302 294 295 271 267 258 263 260
295 299 295 300 309 317 327 335 5 358 15 14 3 4 16 23 28 29 34 32 26 37 31 316 290 288 305 312 295 310 315 309 305 303 309 316 317 320 336 313 287 280 265 263
288 295 294 300 315 328 4 347 353 356 353 345 352 360 9 10 20 22 27 29 31 22 1 297 290 281 298 308 312 303 308 307 302 294 296 306 309 320 329 332 302 294 279 272
294 294 294 303 311 325 325 342 344 334 339 342 340 345 1 14 18 23 28 25 18 11 355 308 296 291 285 300 310 307 290 302 295 293 281 288 301 311 304 326 307 306 300 291
291 289 291 296 309 311 312 319 323 330 321 332 336 341 353 348 8 9 352 357 10 25 351 324 300 308 303 310 305 317 292 286 297 296 295 271 279 285 300 304 301 295 308 318